This is the latest recevied weather packets stored in our database for station/object CE1RLP-31. If no packets are shown the sender has not sent any weather packets the latest 10 day(s).
| Time | Temp. | Humidity | Pressure | Rain* | Wind** | Luminosity | Snow |
|---|---|---|---|---|---|---|---|
| 1777397847 | 15° C | 13% | 1098.2 hPa | - | - | - | - |
| 1777396947 | 15° C | 13% | 1098.1 hPa | - | - | - | - |
| 1777396047 | 14.44° C | 13% | 1098.3 hPa | - | - | - | - |
| 1777395147 | 14.44° C | 11% | 1098.4 hPa | - | - | - | - |
| 1777394247 | 14.44° C | 11% | 1098.4 hPa | - | - | - | - |
| 1777393347 | 14.44° C | 12% | 1098.6 hPa | - | - | - | - |
| 1777392446 | 13.89° C | 12% | 1098.7 hPa | - | - | - | - |
| 1777391553 | 13.33° C | 12% | 1098.9 hPa | - | - | - | - |
| 1777390653 | 12.78° C | 12% | 1099.1 hPa | - | - | - | - |
| 1777389753 | 12.78° C | 12% | 1099.2 hPa | - | - | - | - |
| 1777388853 | 12.22° C | 11% | 1099.1 hPa | - | - | - | - |
| 1777387993 | 11.11° C | 12% | 1099.2 hPa | - | - | - | - |
| 1777387953 | 11.11° C | 12% | 1099.2 hPa | - | - | - | - |
| 1777387053 | 10.56° C | 12% | 1099.2 hPa | - | - | - | - |
| 1777386153 | 10° C | 12% | 1099.1 hPa | - | - | - | - |
| 1777385253 | 9.44° C | 11% | 1099 hPa | - | - | - | - |
| 1777384350 | 8.89° C | 11% | 1099 hPa | - | - | - | - |
| 1777383447 | 8.33° C | 11% | 1099 hPa | - | - | - | - |
| 1777382547 | 7.22° C | 12% | 1098.9 hPa | - | - | - | - |
| 1777381647 | 6.67° C | 12% | 1099 hPa | - | - | - | - |
| 1777380747 | 6.11° C | 14% | 1099.5 hPa | - | - | - | - |
| 1777379847 | 5.56° C | 14% | 1098.7 hPa | - | - | - | - |
| 1777378947 | 5° C | 15% | 1098.7 hPa | - | - | - | - |
| 1777378047 | 4.44° C | 15% | 1098.7 hPa | - | - | - | - |
| 1777377147 | 3.89° C | 16% | 1098.6 hPa | - | - | - | - |
* Rain since midnight (hover to see other rain measurements)
** Current wind speed in m/s (hover to see current wind gust speed)